Location: Natural Bridges National Monument
(37.6093°N, 109.9767°W)
Time: 12:27:14
(UTC-06:00)

USA 32 - Visible Passes

Search period start: 28 July 2014 00:00
Search period end: 07 August 2014 00:00
Orbit: 779 x 783 km, 85.0° (Epoch: 22 July)

Date Brightness Start Highest point End Pass type
(mag) Time Alt. Az. Time Alt. Az. Time Alt. Az.
28 Jul 5.1 00:41:20 10° NNW 00:45:05 39° NW 00:45:05 39° NW visible
29 Jul 4.6 00:08:35 10° N 00:12:39 55° N 00:12:39 55° N visible
29 Jul 4.7 23:36:08 10° N 23:40:14 45° NE 23:40:14 45° NE visible
30 Jul 6.3 01:18:35 10° NW 01:20:46 15° WNW 01:20:46 15° WNW visible
30 Jul 5.3 23:04:01 10° NNE 23:07:49 28° ENE 23:07:49 28° ENE visible
31 Jul 5.7 00:44:56 10° NNW 00:48:22 27° WNW 00:48:22 27° WNW visible
31 Jul 5.9 22:32:30 10° NE 22:35:25 16° ENE 22:35:25 16° ENE visible
01 Aug 4.9 00:11:54 10° NNW 00:15:58 45° NW 00:15:58 45° NW visible
01 Aug 4.4 23:39:12 10° N 23:43:34 62° N 23:43:34 62° N visible
02 Aug 4.6 23:06:48 10° N 23:11:11 44° ENE 23:11:11 44° ENE visible
03 Aug 6.2 00:48:56 10° NW 00:51:43 18° WNW 00:51:43 18° WNW visible
03 Aug 5.3 22:34:45 10° NNE 22:38:48 26° ENE 22:38:48 26° ENE visible
04 Aug 5.5 00:15:26 10° NNW 00:19:21 31° WNW 00:19:21 31° WNW visible
04 Aug 5.9 22:03:24 10° NE 22:06:16 15° ENE 22:06:26 15° ENE visible
04 Aug 4.6 23:42:28 10° NNW 23:46:59 54° WNW 23:46:59 54° WNW visible
05 Aug 4.1 23:09:49 10° N 23:14:38 71° NE 23:14:38 71° NE visible
06 Aug 6.7 00:54:25 10° WNW 00:55:11 10° WNW 00:55:11 10° WNW visible
06 Aug 4.5 22:37:28 10° N 22:42:17 42° ENE 22:42:17 42° ENE visible
